Total_Precipitation_Accumulation
0.43 0.35 0.42 0.46 0.41 0.42 0.62 0.67 0.57 0.36 0.31 0.34 0.31 0.30 0.32 0.33 0.33 0.31 0.31 0.35 0.39 0.45 0.50 0.55 0.62 0.70 0.76 0.80 0.82 0.86 0.96 1.02 1.06 1.08 1.15 1.18 1.15 1.26 1.43 1.38 1.23 1.15 1.12 1.17
0.37 0.28 0.33 0.36 0.30 0.33 0.38 0.39 0.37 0.28 0.30 0.32 0.30 0.24 0.26 0.30 0.33 0.35 0.37 0.38 0.40 0.45 0.49 0.56 0.63 0.73 0.83 0.84 0.83 0.79 0.85 0.94 1.01 1.09 1.22 1.23 1.17 1.20 1.32 1.39 1.32 1.21 1.13 1.13
0.57 0.30 0.50 0.54 0.38 0.39 0.40 0.40 0.41 0.46 0.40 0.31 0.30 0.29 0.34 0.37 0.39 0.41 0.42 0.43 0.43 0.47 0.52 0.60 0.65 0.74 0.85 0.86 0.85 0.82 0.81 0.88 0.94 1.00 1.16 1.23 1.21 1.26 1.30 1.37 1.43 1.41 1.25 1.13
0.95 0.69 0.96 0.50 0.27 0.30 0.35 0.40 0.44 0.42 0.35 0.34 0.37 0.34 0.34 0.38 0.46 0.47 0.45 0.44 0.45 0.49 0.54 0.57 0.63 0.68 0.76 0.81 0.81 0.85 0.86 0.89 0.93 0.94 1.00 1.15 1.25 1.28 1.29 1.32 1.35 1.41 1.35 1.23
1.43 1.03 0.57 0.28 0.23 0.30 0.40 0.45 0.39 0.35 0.32 0.30 0.28 0.25 0.26 0.26 0.34 0.44 0.45 0.46 0.48 0.52 0.55 0.56 0.57 0.62 0.73 0.79 0.78 0.86 0.93 0.95 0.92 0.88 0.92 1.04 1.15 1.25 1.29 1.30 1.26 1.28 1.27 1.25
1.63 1.24 0.59 0.36 0.23 0.21 0.32 0.55 0.34 0.30 0.32 0.30 0.29 0.38 0.30 0.23 0.30 0.40 0.39 0.42 0.47 0.49 0.48 0.51 0.55 0.59 0.70 0.79 0.76 0.83 0.90 0.96 0.89 0.80 0.78 0.82 0.94 1.13 1.24 1.25 1.20 1.20 1.21 1.22
1.39 1.13 0.50 0.33 0.23 0.25 0.53 0.62 0.32 0.30 0.32 0.32 0.37 0.44 0.35 0.29 0.34 0.38 0.35 0.39 0.41 0.43 0.44 0.53 0.58 0.57 0.64 0.74 0.80 0.84 0.89 0.96 0.88 0.79 0.78 0.79 0.86 1.04 1.17 1.24 1.23 1.17 1.14 1.15
1.03 1.18 0.65 0.32 0.33 0.54 0.62 0.35 0.26 0.24 0.25 0.27 0.26 0.25 0.24 0.27 0.33 0.35 0.31 0.32 0.33 0.37 0.42 0.49 0.55 0.59 0.65 0.72 0.79 0.87 0.91 0.90 0.90 0.87 0.83 0.84 0.88 1.01 1.14 1.22 1.28 1.22 1.13 1.10
0.75 0.66 0.45 0.37 0.45 0.47 0.38 0.29 0.22 0.23 0.22 0.21 0.21 0.22 0.25 0.28 0.30 0.33 0.32 0.31 0.31 0.35 0.39 0.45 0.53 0.60 0.69 0.76 0.75 0.83 0.88 0.90 0.90 0.91 0.89 0.90 0.94 1.03 1.15 1.21 1.25 1.23 1.14 1.08
0.54 0.36 0.30 0.31 0.33 0.32 0.27 0.24 0.21 0.21 0.21 0.20 0.20 0.20 0.24 0.26 0.27 0.29 0.30 0.30 0.31 0.34 0.37 0.46 0.53 0.57 0.66 0.73 0.72 0.72 0.78 0.85 0.85 0.89 0.94 0.98 1.01 1.04 1.12 1.21 1.27 1.18 1.11 1.03
0.49 0.30 0.26 0.26 0.26 0.27 0.23 0.21 0.19 0.20 0.20 0.20 0.21 0.21 0.23 0.26 0.26 0.28 0.33 0.33 0.34 0.37 0.40 0.48 0.55 0.62 0.68 0.69 0.67 0.68 0.70 0.81 0.87 0.92 0.98 1.01 1.04 1.08 1.15 1.17 1.30 1.25 1.11 1.04
0.47 0.31 0.34 0.30 0.26 0.25 0.24 0.23 0.23 0.23 0.23 0.20 0.22 0.25 0.24 0.25 0.27 0.30 0.35 0.37 0.37 0.38 0.43 0.50 0.57 0.68 0.71 0.66 0.64 0.67 0.72 0.78 0.87 0.94 0.96 0.95 0.94 1.01 1.17 1.20 1.23 1.18 1.11 1.08
0.29 0.26 0.27 0.25 0.23 0.23 0.23 0.22 0.22 0.23 0.24 0.22 0.21 0.24 0.27 0.28 0.28 0.30 0.34 0.38 0.43 0.45 0.50 0.53 0.59 0.68 0.71 0.66 0.62 0.64 0.71 0.77 0.84 0.92 0.91 0.87 0.83 0.84 0.95 1.12 1.20 1.18 1.14 1.09
0.17 0.20 0.22 0.19 0.19 0.18 0.17 0.18 0.18 0.18 0.19 0.20 0.21 0.22 0.25 0.26 0.26 0.28 0.34 0.41 0.47 0.48 0.50 0.54 0.58 0.66 0.70 0.65 0.62 0.62 0.68 0.79 0.83 0.86 0.88 0.86 0.84 0.83 0.85 0.93 1.04 1.11 1.15 1.10
0.11 0.14 0.17 0.14 0.13 0.13 0.13 0.14 0.15 0.15 0.15 0.15 0.16 0.20 0.23 0.27 0.29 0.32 0.37 0.43 0.48 0.49 0.51 0.56 0.61 0.71 0.71 0.64 0.63 0.64 0.71 0.76 0.77 0.81 0.86 0.87 0.86 0.88 0.89 0.92 0.95 0.99 1.05 1.17
0.13 0.13 0.14 0.14 0.15 0.14 0.14 0.14 0.15 0.14 0.15 0.16 0.17 0.18 0.21 0.27 0.32 0.38 0.43 0.47 0.51 0.54 0.57 0.60 0.65 0.72 0.70 0.64 0.63 0.65 0.73 0.84 0.82 0.82 0.86 0.88 0.89 0.93 0.98 1.00 1.01 0.99 1.00 1.10
0.19 0.18 0.16 0.16 0.14 0.14 0.15 0.16 0.16 0.15 0.16 0.17 0.18 0.18 0.19 0.24 0.28 0.35 0.41 0.48 0.55 0.59 0.60 0.61 0.66 0.70 0.69 0.67 0.65 0.65 0.69 0.76 0.85 0.82 0.81 0.84 0.89 0.93 0.98 1.04 1.05 0.99 0.94 1.04
0.22 0.21 0.18 0.18 0.16 0.15 0.14 0.14 0.14 0.17 0.19 0.19 0.19 0.20 0.22 0.26 0.31 0.37 0.44 0.48 0.51 0.56 0.60 0.62 0.67 0.70 0.70 0.73 0.69 0.67 0.70 0.73 0.76 0.78 0.81 0.86 0.91 0.93 1.00 1.05 1.04 1.01 0.99 1.05
0.17 0.17 0.15 0.15 0.15 0.14 0.14 0.15 0.16 0.18 0.19 0.20 0.21 0.23 0.25 0.29 0.34 0.40 0.47 0.48 0.48 0.52 0.59 0.63 0.69 0.66 0.68 0.76 0.76 0.71 0.73 0.76 0.78 0.76 0.78 0.90 0.95 0.93 0.97 1.02 1.05 1.04 1.05 1.07
0.16 0.15 0.14 0.13 0.13 0.13 0.15 0.17 0.17 0.17 0.18 0.20 0.23 0.24 0.26 0.30 0.35 0.40 0.45 0.47 0.50 0.56 0.58 0.62 0.63 0.62 0.65 0.74 0.80 0.75 0.78 0.81 0.81 0.79 0.78 0.84 0.90 0.93 0.96 0.99 1.03 1.06 1.07 1.09
0.16 0.14 0.13 0.12 0.13 0.13 0.15 0.17 0.17 0.17 0.18 0.20 0.25 0.28 0.31 0.35 0.38 0.41 0.42 0.42 0.44 0.48 0.51 0.56 0.57 0.60 0.63 0.75 0.84 0.80 0.80 0.81 0.82 0.81 0.82 0.83 0.88 0.92 0.94 0.96 1.00 1.03 1.06 1.08
0.17 0.16 0.15 0.14 0.14 0.16 0.17 0.18 0.20 0.20 0.20 0.21 0.25 0.30 0.33 0.36 0.37 0.39 0.39 0.41 0.42 0.49 0.49 0.48 0.50 0.59 0.67 0.75 0.77 0.77 0.76 0.77 0.79 0.83 0.85 0.86 0.92 0.97 0.97 0.95 1.01 1.02 1.04 1.06
0.18 0.18 0.18 0.19 0.20 0.21 0.19 0.19 0.21 0.23 0.23 0.24 0.27 0.31 0.35 0.37 0.37 0.39 0.40 0.41 0.44 0.52 0.50 0.51 0.57 0.66 0.74 0.72 0.70 0.72 0.73 0.75 0.78 0.82 0.87 0.90 0.93 0.98 1.00 1.00 1.01 1.03 1.07 1.09
0.21 0.20 0.22 0.22 0.23 0.24 0.22 0.21 0.23 0.26 0.28 0.29 0.30 0.33 0.37 0.39 0.38 0.38 0.42 0.49 0.54 0.57 0.55 0.60 0.67 0.71 0.76 0.70 0.67 0.71 0.76 0.80 0.82 0.87 0.91 0.94 0.97 1.00 1.00 0.99 1.01 1.01 1.04 1.07
0.25 0.24 0.24 0.24 0.26 0.28 0.29 0.27 0.27 0.28 0.29 0.32 0.33 0.35 0.40 0.44 0.48 0.48 0.48 0.53 0.59 0.62 0.62 0.67 0.72 0.74 0.72 0.71 0.71 0.75 0.82 0.86 0.93 1.02 1.04 1.00 0.99 1.00 0.96 0.94 0.99 1.03 1.03 1.02
0.30 0.31 0.31 0.31 0.33 0.34 0.34 0.33 0.33 0.31 0.31 0.34 0.38 0.41 0.46 0.50 0.52 0.54 0.55 0.57 0.61 0.65 0.65 0.66 0.69 0.73 0.74 0.79 0.82 0.85 0.91 0.96 0.99 0.99 0.95 0.93 0.93 0.93 0.90 0.89 0.92 0.97 0.99 0.99
0.35 0.35 0.36 0.37 0.39 0.39 0.40 0.41 0.42 0.42 0.41 0.45 0.49 0.49 0.51 0.55 0.59 0.61 0.62 0.63 0.65 0.67 0.69 0.71 0.74 0.79 0.83 0.87 0.91 0.94 0.97 0.98 0.98 0.97 0.93 0.93 0.92 0.90 0.87 0.88 0.90 0.93 0.93 0.91